Regional Weather Roundup
Issued by NWS Jackson, KY

Home | Current Version | Previous Version | Graphics & Text | Print | Product List | Glossary On
Versions: 1 2 3 4 5 6 7 8 9 10 11 12 13 14 15 16 17 18 19 20 21 22 23 24 25 26 27 28 29 30 31 32 33 34 35 36 37 38 39 40 41 42 43 44 45 46 47 48 49 50
000
ASUS43 KJKL 200210
RWRJKL

EAST KENTUCKY HOURLY WEATHER ROUNDUP
NATIONAL WEATHER SERVICE JACKSON KY
1000 PM EDT SAT APR 19 2014

NOTE: "FAIR" INDICATES FEW OR NO CLOUDS BELOW 12,000 FEET WITH
NO SIGNIFICANT WEATHER AND/OR OBSTRUCTIONS TO VISIBILITY.

* THESE REPORTS ARE NOT UNDER NWS QUALITY CONTROL AND MAY NOT
  REPORT WEATHER SUCH AS PRECIPITATION AND FOG.

KYZ079-080-083-085-087-088-110-112-115-119-120-200300
...EASTERN KENTUCKY...

CITY           SKY/WX    TMP DP  RH WIND       PRES   REMARKS
JACKSON        MOCLDY    63  31  30 VRB5      30.21R
LONDON         PTCLDY    65  33  30 NE7       30.18R
SOMERSET*      PTCLDY    61  34  36 NE7       30.20R
MONTICELLO*    CLEAR     55  42  61 NE6       30.20R
MIDDLESBORO*   MOCLDY    57  43  59 CALM      30.19R
HARLAN APT*    CLOUDY    61  32  33 CALM      30.19R
BLACK MTN*       N/A     50  32  50 VRB1        N/A
PIKEVILLE APT* CLEAR     61  36  39 NE7       30.21R
BIG SANDY*     CLOUDY    60  36  41 NE5       30.21R
MOREHEAD APT*  PTCLDY    63  30  29 MISG      30.24R
$$

KYZ035-036-041-042-044-050-067-078-099-200300
...CENTRAL KENTUCKY...

CITY           SKY/WX    TMP DP  RH WIND       PRES   REMARKS
MT STERLING*   MOCLDY    59  37  44 NE3       30.23R
FLEMING/MASON* CLEAR     59  36  41 N8        30.24R
DANVILLE*      CLEAR     54  39  58 N6        30.22R
LEXINGTON      PTCLDY    58  36  43 NE8       30.22R
FRANKFORT      CLEAR     62  32  32 NE6       30.21R
$$

KYZ091>093-OHZ055-061-077-WVZ005-015-034-035-042-200300
...SOUTHERN OHIO/WEST VIRGINIA...

CITY           SKY/WX    TMP DP  RH WIND       PRES   REMARKS
COVINGTON      PTCLDY    61  34  36 NE7       30.24S
COLUMBUS       PTCLDY    56  27  32 NE3       30.27S
DAYTON         PTCLDY    50  34  54 NE9       30.28S
WILMINGTON     PTCLDY    50  34  54 NE9       30.26S
HUNTINGTON     MOCLDY    61  31  32 NE7       30.22R
CHARLESTON     CLOUDY    61  33  35 NE5       30.23R
PINEVILLE*     CLOUDY    55  43  66 MISG      30.27R
BECKLEY        CLOUDY    56  34  43 SE3       30.25R
BLUEFIELD      CLOUDY    56  36  47 SE5       30.26R
$$

VAZ002-007-008-TNZ017-027-036-066-071-200300
...SOUTHWEST VIRGINIA/EAST TENNESSEE...

CITY           SKY/WX    TMP DP  RH WIND       PRES   REMARKS
WISE*          CLOUDY    57  30  35 NE6       30.24R
ABINGDON*      CLOUDY    59  34  39 E8        30.23R
BRISTOL        CLOUDY    57  39  51 CALM      30.21R
KNOXVILLE      MOCLDY    55  52  89 NE5       30.17R
OAK RIDGE      MOCLDY    56  45  66 CALM      30.19R
CROSSVILLE     PTCLDY    54  40  59 SE3       30.20R
NASHVILLE      PTCLDY    66  40  38 N6        30.16R
$$

...KEY TO REMARKS...
VSB - VISIBILITY IN MILES
WCI - WIND CHILL INDEX
HX  - HEAT INDEX

$$



USA.gov is the U.S. government's official web portal to all federal, state and local government web resources and services.